�������l�o���
Date,Time,MP-1(��Sv/h),MP-2(��Sv/h),MP-3(��Sv/h),MP-4(��Sv/h),MP-5(��Sv/h),MP-6(��Sv/h),MP-7(��Sv/h),����,����(m/s),���J
2024/03/09,00:00,0.142,0.125,0.199,0.186,0.198,0.112,0.074,�k��,6.3,��
2024/03/09,00:10,0.142,0.126,0.199,0.185,0.197,0.113,0.075,�k��,6.9,��
2024/03/09,00:20,0.143,0.126,0.199,0.185,0.197,0.112,0.074,�k��,6.2,��
2024/03/09,00:30,0.142,0.126,0.199,0.185,0.197,0.112,0.074,�k��,6.8,��
2024/03/09,00:40,0.143,0.125,0.200,0.184,0.198,0.112,0.074,�k��,7.0,��
2024/03/09,00:50,0.142,0.126,0.199,0.185,0.198,0.112,0.075,�k��,6.6,��
2024/03/09,01:00,0.143,0.126,0.199,0.186,0.198,0.112,0.075,�k��,7.3,��
2024/03/09,01:10,0.142,0.126,0.199,0.184,0.198,0.113,0.074,�k��,7.1,��
2024/03/09,01:20,0.143,0.126,0.198,0.185,0.197,0.112,0.074,�k��,6.8,��
2024/03/09,01:30,0.143,0.125,0.199,0.186,0.196,0.113,0.074,�k��,6.4,��
2024/03/09,01:40,0.143,0.126,0.198,0.186,0.197,0.112,0.074,�k��,7.0,��
2024/03/09,01:50,0.141,0.126,0.200,0.185,0.198,0.112,0.074,�k�k��,6.8,��
2024/03/09,02:00,0.142,0.126,0.200,0.186,0.198,0.113,0.074,�k��,6.4,��
2024/03/09,02:10,0.142,0.125,0.199,0.185,0.197,0.113,0.075,�k��,5.1,��
2024/03/09,02:20,0.143,0.125,0.199,0.186,0.198,0.113,0.075,�k��,5.5,��
2024/03/09,02:30,0.143,0.126,0.199,0.185,0.198,0.113,0.074,�k��,5.4,��
2024/03/09,02:40,0.142,0.126,0.199,0.186,0.197,0.112,0.074,�k��,6.2,��
2024/03/09,02:50,0.142,0.125,0.198,0.185,0.197,0.112,0.074,�k��,6.0,��
2024/03/09,03:00,0.142,0.126,0.198,0.186,0.197,0.113,0.074,�k��,5.0,��
2024/03/09,03:10,0.144,0.124,0.199,0.186,0.198,0.112,0.074,�k��,6.2,��
2024/03/09,03:20,0.142,0.126,0.199,0.185,0.197,0.113,0.074,�k��,5.8,��
2024/03/09,03:30,0.142,0.125,0.200,0.185,0.197,0.113,0.074,�k��,5.5,��
2024/03/09,03:40,0.143,0.126,0.199,0.185,0.198,0.113,0.075,�k�k��,6.1,��
2024/03/09,03:50,0.143,0.126,0.199,0.185,0.198,0.113,0.075,�k��,4.1,��
2024/03/09,04:00,0.142,0.126,0.199,0.186,0.199,0.113,0.075,�k��,3.7,��
2024/03/09,04:10,0.142,0.126,0.199,0.186,0.197,0.113,0.074,�k�k��,3.6,��
2024/03/09,04:20,0.143,0.126,0.199,0.186,0.197,0.113,0.075,�k�k��,2.8,��
2024/03/09,04:30,0.142,0.125,0.199,0.185,0.196,0.113,0.075,�k�k��,3.8,��
2024/03/09,04:40,0.142,0.126,0.199,0.185,0.198,0.114,0.074,�k��,3.0,��
2024/03/09,04:50,0.142,0.126,0.198,0.185,0.197,0.113,0.074,�k�k��,4.3,��
2024/03/09,05:00,0.143,0.126,0.198,0.186,0.198,0.113,0.074,�k��,3.9,��
2024/03/09,05:10,0.142,0.125,0.199,0.186,0.198,0.113,0.074,�k��,3.3,��
2024/03/09,05:20,0.142,0.126,0.199,0.185,0.197,0.113,0.075,�k��,3.7,��
2024/03/09,05:30,0.142,0.126,0.199,0.185,0.197,0.113,0.075,�k��,4.3,��
2024/03/09,05:40,0.143,0.126,0.198,0.185,0.198,0.113,0.075,�k��,4.9,��
2024/03/09,05:50,0.142,0.125,0.198,0.186,0.197,0.113,0.075,���k��,7.9,�L
2024/03/09,06:00,0.142,0.125,0.198,0.185,0.198,0.113,0.075,���k��,3.8,��
2024/03/09,06:10,0.142,0.125,0.199,0.185,0.197,0.114,0.075,���쐼,3.7,��
2024/03/09,06:20,0.143,0.127,0.200,0.186,0.198,0.114,0.075,�쐼,4.5,��
2024/03/09,06:30,0.142,0.125,0.200,0.186,0.198,0.114,0.075,�쐼,4.4,��
2024/03/09,06:40,0.142,0.126,0.200,0.186,0.198,0.113,0.075,�쐼,2.2,��
2024/03/09,06:50,0.143,0.125,0.198,0.186,0.198,0.115,0.076,-,CALM,��
2024/03/09,07:00,0.142,0.127,0.199,0.187,0.198,0.114,0.076,��쐼,1.7,��
2024/03/09,07:10,0.143,0.126,0.199,0.185,0.198,0.114,0.076,�쓌,0.9,��
2024/03/09,07:20,0.142,0.127,0.198,0.186,0.197,0.113,0.075,�k��,1.5,��
2024/03/09,07:30,0.143,0.126,0.200,0.185,0.196,0.114,0.074,�k,1.2,��
2024/03/09,07:40,0.142,0.126,0.200,0.186,0.197,0.113,0.074,�k��,1.6,��
2024/03/09,07:50,0.143,0.125,0.200,0.184,0.197,0.113,0.073,�k��,5.2,��
2024/03/09,08:00,0.142,0.125,0.198,0.184,0.196,0.113,0.074,��,5.9,��
2024/03/09,08:10,0.142,0.126,0.199,0.185,0.198,0.112,0.074,���k��,9.5,��
2024/03/09,08:20,0.142,0.125,0.197,0.184,0.197,0.113,0.074,��,16.2,��
2024/03/09,08:30,0.143,0.124,0.199,0.184,0.197,0.113,0.073,���k��,11.8,��
2024/03/09,08:40,0.142,0.125,0.198,0.185,0.197,0.113,0.074,���k��,12.3,��
2024/03/09,08:50,0.143,0.125,0.197,0.186,0.197,0.112,0.074,���k��,12.2,��
2024/03/09,09:00,0.143,0.124,0.199,0.185,0.197,0.114,0.074,���k��,13.4,��
2024/03/09,09:10,0.143,0.125,0.200,0.185,0.198,0.113,0.074,���k��,14.6,��
2024/03/09,09:20,0.143,0.125,0.200,0.186,0.199,0.113,0.073,��,18.3,��
2024/03/09,09:30,0.142,0.125,0.199,0.186,0.198,0.113,0.074,���k��,20.9,��
2024/03/09,09:40,0.143,0.125,0.200,0.187,0.199,0.113,0.075,��,17.2,��
2024/03/09,09:50,0.143,0.126,0.200,0.188,0.200,0.114,0.074,��,22.7,��
2024/03/09,10:00,0.143,0.126,0.200,0.187,0.200,0.114,0.074,���k��,18.5,��
2024/03/09,10:10,0.144,0.126,0.201,0.188,0.200,0.114,0.074,��,19.8,��
2024/03/09,10:20,0.143,0.125,0.200,0.188,0.201,0.113,0.075,���k��,20.9,��
2024/03/09,10:30,0.143,0.127,0.200,0.188,0.202,0.114,0.074,��,22.3,��
2024/03/09,10:40,0.144,0.127,0.200,0.189,0.201,0.114,0.075,��,17.3,��
2024/03/09,10:50,0.143,0.126,0.200,0.190,0.202,0.113,0.074,��,20.0,��
2024/03/09,11:00,0.143,0.126,0.200,0.189,0.202,0.114,0.075,��,15.1,��
2024/03/09,11:10,0.144,0.126,0.201,0.189,0.201,0.114,0.074,���k��,18.0,��
2024/03/09,11:20,0.144,0.126,0.201,0.189,0.203,0.114,0.074,���k��,16.1,��
2024/03/09,11:30,0.143,0.127,0.201,0.189,0.202,0.114,0.075,���k��,19.1,��
2024/03/09,11:40,0.144,0.126,0.201,0.190,0.202,0.113,0.074,��,25.0,��
2024/03/09,11:50,0.144,0.127,0.202,0.191,0.203,0.113,0.074,��,11.5,��
2024/03/09,12:00,0.145,0.127,0.201,0.190,0.203,0.115,0.075,��,14.0,��
2024/03/09,12:10,0.145,0.127,0.202,0.190,0.203,0.113,0.076,��,16.2,��
2024/03/09,12:20,0.144,0.128,0.202,0.192,0.203,0.115,0.074,��,13.9,��
2024/03/09,12:30,0.144,0.126,0.202,0.191,0.202,0.115,0.075,�k��,7.4,��
2024/03/09,12:40,0.143,0.126,0.202,0.191,0.203,0.115,0.075,���k��,10.3,��
2024/03/09,12:50,0.143,0.127,0.201,0.192,0.204,0.114,0.075,���k��,10.3,��
2024/03/09,13:00,0.144,0.127,0.202,0.190,0.203,0.114,0.075,�k��,11.2,��
2024/03/09,13:10,0.144,0.126,0.203,0.190,0.203,0.114,0.075,���k��,9.2,��
2024/03/09,13:20,0.144,0.127,0.201,0.191,0.203,0.114,0.075,�k��,8.8,��
2024/03/09,13:30,0.145,0.127,0.203,0.191,0.203,0.114,0.075,�k��,8.4,��
2024/03/09,13:40,0.145,0.127,0.202,0.191,0.203,0.114,0.075,���k��,12.0,��
2024/03/09,13:50,0.144,0.126,0.203,0.192,0.203,0.115,0.075,�k��,9.5,��
2024/03/09,14:00,0.144,0.127,0.202,0.191,0.203,0.114,0.075,���k��,11.7,��
2024/03/09,14:10,0.144,0.127,0.202,0.192,0.203,0.114,0.075,���k��,13.1,��
2024/03/09,14:20,0.145,0.127,0.203,0.191,0.203,0.114,0.074,���k��,12.9,��
2024/03/09,14:30,0.145,0.126,0.203,0.191,0.203,0.114,0.074,�k��,12.0,��
2024/03/09,14:40,0.144,0.127,0.203,0.192,0.205,0.114,0.075,�k��,11.7,��
2024/03/09,14:50,0.144,0.127,0.203,0.193,0.203,0.114,0.075,�k��,12.6,��
2024/03/09,15:00,0.144,0.127,0.203,0.193,0.205,0.114,0.075,�k��,11.2,��
2024/03/09,15:10,0.144,0.127,0.204,0.193,0.204,0.115,0.075,���k��,10.7,��
2024/03/09,15:20,0.144,0.127,0.203,0.193,0.202,0.115,0.075,���k��,9.3,��
2024/03/09,15:30,0.144,0.126,0.205,0.194,0.205,0.116,0.075,���k��,12.0,��
2024/03/09,15:40,0.144,0.127,0.204,0.193,0.203,0.115,0.075,���k��,10.0,��
2024/03/09,15:50,0.145,0.127,0.205,0.193,0.204,0.114,0.075,���k��,8.4,��
2024/03/09,16:00,0.146,0.127,0.204,0.194,0.203,0.114,0.075,���k��,7.9,��
2024/03/09,16:10,0.145,0.127,0.204,0.193,0.203,0.114,0.075,���k��,10.0,��
2024/03/09,16:20,0.145,0.128,0.204,0.192,0.203,0.115,0.075,���k��,8.8,��
2024/03/09,16:30,0.145,0.127,0.204,0.193,0.204,0.116,0.075,���k��,9.0,��
2024/03/09,16:40,0.145,0.128,0.204,0.193,0.204,0.115,0.075,���k��,7.9,��
2024/03/09,16:50,0.145,0.128,0.204,0.193,0.203,0.115,0.075,���k��,10.3,��
2024/03/09,17:00,0.145,0.127,0.204,0.193,0.203,0.116,0.075,���k��,7.9,��
2024/03/09,17:10,0.144,0.127,0.205,0.193,0.204,0.115,0.075,���k��,8.4,��
2024/03/09,17:20,0.144,0.128,0.204,0.194,0.203,0.115,0.076,���k��,9.2,��
2024/03/09,17:30,0.145,0.127,0.203,0.194,0.204,0.115,0.075,���k��,8.1,��
2024/03/09,17:40,0.145,0.128,0.204,0.193,0.203,0.115,0.075,���k��,6.9,��
2024/03/09,17:50,0.146,0.127,0.203,0.193,0.205,0.115,0.075,�k��,5.4,��
2024/03/09,18:00,0.145,0.128,0.205,0.194,0.204,0.115,0.075,���k��,5.6,��
2024/03/09,18:10,0.145,0.127,0.205,0.193,0.204,0.114,0.075,�k��,7.3,��
2024/03/09,18:20,0.145,0.127,0.205,0.194,0.203,0.115,0.075,�k��,6.3,��
2024/03/09,18:30,0.145,0.127,0.204,0.193,0.202,0.115,0.075,���k��,5.6,��
2024/03/09,18:40,0.144,0.127,0.203,0.193,0.204,0.115,0.075,�k��,5.6,��
2024/03/09,18:50,0.145,0.127,0.204,0.194,0.203,0.115,0.075,���k��,5.9,��
2024/03/09,19:00,0.145,0.128,0.204,0.194,0.203,0.114,0.075,���k��,6.1,��
2024/03/09,19:10,0.145,0.127,0.204,0.193,0.202,0.115,0.075,�k��,4.5,��
2024/03/09,19:20,0.145,0.127,0.204,0.193,0.204,0.114,0.075,�k��,1.9,��
2024/03/09,19:30,0.145,0.126,0.204,0.193,0.203,0.115,0.075,�k��,2.1,��
2024/03/09,19:40,0.144,0.127,0.204,0.192,0.204,0.115,0.074,���k��,4.8,��
2024/03/09,19:50,0.144,0.126,0.204,0.193,0.203,0.115,0.075,�k��,4.1,��
2024/03/09,20:00,0.145,0.127,0.205,0.193,0.202,0.115,0.074,�k��,5.9,��
2024/03/09,20:10,0.145,0.126,0.205,0.193,0.203,0.115,0.075,���k��,7.4,��
2024/03/09,20:20,0.144,0.127,0.204,0.193,0.203,0.114,0.075,�k��,6.3,��
2024/03/09,20:30,0.143,0.127,0.204,0.192,0.204,0.115,0.076,�k��,6.2,��
2024/03/09,20:40,0.145,0.128,0.204,0.194,0.204,0.115,0.075,�k�k��,4.1,��
2024/03/09,20:50,0.145,0.126,0.204,0.194,0.203,0.114,0.075,�k��,5.5,��
2024/03/09,21:00,0.145,0.127,0.203,0.193,0.203,0.115,0.075,�k�k��,5.2,��
2024/03/09,21:10,0.144,0.126,0.204,0.194,0.204,0.115,0.075,�k�k��,4.8,��
2024/03/09,21:20,0.145,0.127,0.205,0.195,0.203,0.114,0.074,�k��,5.5,��
2024/03/09,21:30,0.145,0.128,0.205,0.193,0.202,0.115,0.075,�k��,7.0,��
2024/03/09,21:40,0.145,0.127,0.204,0.193,0.204,0.113,0.075,�k��,6.6,��
2024/03/09,21:50,0.146,0.127,0.204,0.193,0.203,0.114,0.075,�k��,4.2,��
2024/03/09,22:00,0.145,0.127,0.204,0.193,0.203,0.115,0.076,�k�k��,3.5,��
2024/03/09,22:10,0.145,0.127,0.204,0.193,0.203,0.115,0.076,�k�k��,4.5,��
2024/03/09,22:20,0.145,0.128,0.203,0.193,0.203,0.114,0.075,�k�k��,4.3,��
2024/03/09,22:30,0.144,0.127,0.205,0.193,0.203,0.114,0.075,�k�k��,7.0,��
2024/03/09,22:40,0.145,0.128,0.204,0.192,0.203,0.115,0.076,�k��,7.7,��
2024/03/09,22:50,0.145,0.128,0.204,0.193,0.203,0.114,0.075,�k��,7.6,��
2024/03/09,23:00,0.146,0.127,0.204,0.193,0.204,0.114,0.075,�k��,9.0,��
2024/03/09,23:10,0.144,0.127,0.204,0.194,0.203,0.115,0.075,�k��,8.9,��
2024/03/09,23:20,0.146,0.127,0.205,0.193,0.203,0.115,0.075,�k��,8.3,��
2024/03/09,23:30,0.144,0.126,0.204,0.193,0.204,0.115,0.075,�k��,8.1,��
2024/03/09,23:40,0.145,0.127,0.205,0.193,0.203,0.114,0.074,�k��,8.4,��
2024/03/09,23:50,0.143,0.127,0.204,0.193,0.203,0.114,0.075,�k��,8.5,��
